• In Spain
  • List of Countries
  • For 7 days
  • Water Temperature
  • Satellite Maps
  • Weather Map
  • Weather Widgets
  • user-avatar
    Login

    Hourly Weather Shannon

    Today, 22 September, Saturday

    Time Temperature Precipitation Wind Pressure Humidity
    00:00 +9°C° 0 mm 1 mps 762 mmHg 92%
    01:00 +9°C° 0 mm 1 mps 762 mmHg 92%
    02:00 +9°C° 0 mm 1 mps 762 mmHg 92%
    03:00 +9°C° 0.4 mm 1 mps 762 mmHg 93%
    04:00 +9°C° 0.4 mm 1 mps 762 mmHg 94%
    05:00 +9°C° 0.4 mm 1 mps 762 mmHg 96%
    06:00 +8°C° 0.6 mm 2 mps 762 mmHg 95%
    07:00 +9°C° 0.6 mm 2 mps 761 mmHg 95%
    08:00 +9°C° 0.6 mm 2 mps 761 mmHg 95%
    09:00 +9°C° 0.3 mm 2 mps 761 mmHg 94%
    10:00 +10°C° 0.3 mm 3 mps 761 mmHg 92%
    11:00 +10°C° 0.3 mm 3 mps 760 mmHg 91%
    12:00 +10°C° 0.1 mm 3 mps 760 mmHg 89%
    13:00 +11°C° 0.1 mm 3 mps 760 mmHg 88%
    14:00 +11°C° 0.1 mm 3 mps 760 mmHg 86%
    15:00 +11°C° 0 mm 3 mps 760 mmHg 87%
    16:00 +10°C° 0 mm 2 mps 761 mmHg 89%
    17:00 +10°C° 0 mm 2 mps 761 mmHg 90%
    18:00 +10°C° 0 mm 2 mps 761 mmHg 91%
    19:00 +9°C° 0 mm 2 mps 762 mmHg 92%
    20:00 +9°C° 0 mm 2 mps 762 mmHg 93%
    21:00 +9°C° 0 mm 2 mps 763 mmHg 92%
    22:00 +9°C° 0 mm 3 mps 763 mmHg 92%
    23:00 +8°C° 0 mm 3 mps 763 mmHg 91%

    Tomorrow, 23 September, Sunday

    Time Temperature Precipitation Wind Pressure Humidity
    00:00 +8°C° 0.4 mm 3 mps 763 mmHg 92%
    01:00 +8°C° 0.4 mm 3 mps 763 mmHg 93%
    02:00 +7°C° 0.4 mm 3 mps 763 mmHg 94%
    03:00 +7°C° 0.6 mm 3 mps 764 mmHg 94%
    04:00 +7°C° 0.6 mm 3 mps 765 mmHg 94%
    05:00 +7°C° 0.6 mm 3 mps 765 mmHg 94%
    06:00 +8°C° 0 mm 3 mps 766 mmHg 91%
    07:00 +7°C° 0 mm 4 mps 767 mmHg 87%
    08:00 +8°C° 0 mm 4 mps 768 mmHg 84%
    09:00 +9°C° 0 mm 5 mps 768 mmHg 77%
    10:00 +10°C° 0 mm 5 mps 769 mmHg 70%
    11:00 +12°C° 0 mm 5 mps 770 mmHg 63%
    12:00 +13°C° 0 mm 5 mps 770 mmHg 63%
    13:00 +13°C° 0 mm 5 mps 771 mmHg 63%
    14:00 +13°C° 0 mm 5 mps 772 mmHg 63%
    15:00 +12°C° 0 mm 5 mps 772 mmHg 67%
    16:00 +11°C° 0 mm 4 mps 773 mmHg 72%
    17:00 +10°C° 0 mm 3 mps 773 mmHg 76%
    18:00 +9°C° 0 mm 3 mps 774 mmHg 80%
    19:00 +7°C° 0 mm 3 mps 775 mmHg 83%
    20:00 +6°C° 0 mm 2 mps 776 mmHg 86%
    21:00 +6°C° 0 mm 2 mps 776 mmHg 87%
    22:00 +6°C° 0 mm 1 mps 777 mmHg 88%
    23:00 +6°C° 0 mm 1 mps 777 mmHg 89%

    Day after tomorrow, 24 September, Monday

    Time Temperature Precipitation Wind Pressure Humidity
    00:00 +6°C° 0 mm 1 mps 777 mmHg 89%
    01:00 +5°C° 0 mm 1 mps 778 mmHg 89%
    02:00 +4°C° 0 mm 0 mps 778 mmHg 89%
    03:00 +5°C° 0 mm 1 mps 778 mmHg 89%
    04:00 +5°C° 0 mm 1 mps 778 mmHg 89%
    05:00 +5°C° 0 mm 1 mps 778 mmHg 89%
    06:00 +7°C° 0 mm 1 mps 779 mmHg 84%
    07:00 +8°C° 0 mm 1 mps 779 mmHg 80%
    08:00 +10°C° 0 mm 1 mps 779 mmHg 75%
    09:00 +11°C° 0 mm 1 mps 780 mmHg 70%
    10:00 +13°C° 0 mm 1 mps 780 mmHg 66%
    11:00 +14°C° 0 mm 1 mps 780 mmHg 61%
    12:00 +14°C° 0 mm 1 mps 780 mmHg 60%
    13:00 +15°C° 0 mm 2 mps 779 mmHg 60%
    14:00 +15°C° 0 mm 2 mps 779 mmHg 59%
    15:00 +14°C° 0 mm 2 mps 779 mmHg 65%
    16:00 +12°C° 0 mm 2 mps 778 mmHg 71%
    17:00 +11°C° 0 mm 1 mps 778 mmHg 77%
    18:00 +9°C° 0 mm 2 mps 778 mmHg 80%
    19:00 +8°C° 0 mm 2 mps 778 mmHg 84%
    20:00 +7°C° 0 mm 2 mps 779 mmHg 88%
    21:00 +6°C° 0 mm 2 mps 778 mmHg 89%
    22:00 +6°C° 0 mm 2 mps 778 mmHg 89%
    23:00 +4°C° 0 mm 3 mps 778 mmHg 90%

    25 September, Tuesday

    Time Temperature Precipitation Wind Pressure Humidity
    00:00 +4°C° 0 mm 3 mps 778 mmHg 90%
    01:00 +4°C° 0 mm 3 mps 777 mmHg 91%
    02:00 +4°C° 0 mm 3 mps 776 mmHg 91%
    03:00 +5°C° 0 mm 3 mps 776 mmHg 91%
    04:00 +5°C° 0 mm 4 mps 776 mmHg 91%
    05:00 +5°C° 0 mm 4 mps 775 mmHg 92%
    06:00 +7°C° 0 mm 4 mps 775 mmHg 87%
    07:00 +9°C° 0 mm 5 mps 775 mmHg 83%
    08:00 +11°C° 0 mm 6 mps 775 mmHg 78%
    09:00 +13°C° 0 mm 6 mps 774 mmHg 77%
    10:00 +14°C° 0 mm 6 mps 774 mmHg 75%
    11:00 +15°C° 0 mm 6 mps 774 mmHg 73%
    12:00 +15°C° 0 mm 6 mps 773 mmHg 73%
    13:00 +15°C° 0 mm 6 mps 773 mmHg 73%
    14:00 +16°C° 0 mm 7 mps 772 mmHg 73%
    15:00 +15°C° 0 mm 6 mps 772 mmHg 76%
    16:00 +14°C° 0 mm 6 mps 772 mmHg 79%
    17:00 +13°C° 0 mm 5 mps 771 mmHg 82%
    18:00 +12°C° 0 mm 5 mps 771 mmHg 85%
    19:00 +12°C° 0 mm 5 mps 771 mmHg 87%
    20:00 +10°C° 0 mm 5 mps 771 mmHg 90%
    21:00 +10°C° 0 mm 5 mps 771 mmHg 91%
    22:00 +10°C° 0 mm 5 mps 771 mmHg 91%
    23:00 +10°C° 0 mm 5 mps 771 mmHg 92%

    26 September, Wednesday

    Time Temperature Precipitation Wind Pressure Humidity
    00:00 +10°C° 0 mm 5 mps 771 mmHg 93%
    01:00 +10°C° 0 mm 5 mps 770 mmHg 94%
    02:00 +12°C° 0 mm 5 mps 770 mmHg 94%
    03:00 +12°C° 0 mm 5 mps 770 mmHg 95%
    04:00 +12°C° 0 mm 5 mps 770 mmHg 95%
    05:00 +12°C° 0 mm 5 mps 770 mmHg 95%
    06:00 +13°C° 0.1 mm 5 mps 770 mmHg 93%
    07:00 +13°C° 0.1 mm 5 mps 770 mmHg 91%
    08:00 +14°C° 0.1 mm 5 mps 770 mmHg 89%
    09:00 +16°C° 0 mm 5 mps 770 mmHg 87%
    10:00 +17°C° 0 mm 5 mps 770 mmHg 84%
    11:00 +19°C° 0 mm 5 mps 770 mmHg 81%
    12:00 +19°C° 0 mm 5 mps 770 mmHg 80%
    13:00 +19°C° 0 mm 5 mps 770 mmHg 79%
    14:00 +20°C° 0 mm 5 mps 769 mmHg 79%
    15:00 +19°C° 0 mm 5 mps 769 mmHg 82%
    16:00 +17°C° 0 mm 5 mps 769 mmHg 85%
    17:00 +15°C° 0 mm 4 mps 769 mmHg 88%
    18:00 +15°C° 0 mm 4 mps 770 mmHg 90%
    19:00 +14°C° 0 mm 4 mps 770 mmHg 92%
    20:00 +13°C° 0 mm 4 mps 770 mmHg 94%
    21:00 +13°C° 0 mm 4 mps 770 mmHg 94%
    22:00 +13°C° 0 mm 4 mps 770 mmHg 94%
    23:00 +12°C° 0 mm 4 mps 770 mmHg 94%

    27 September, Thursday

    Time Temperature Precipitation Wind Pressure Humidity
    00:00 +13°C° 0 mm 4 mps 769 mmHg 94%
    01:00 +13°C° 0 mm 4 mps 769 mmHg 95%
    02:00 +13°C° 0 mm 4 mps 769 mmHg 95%
    03:00 +13°C° 0.1 mm 4 mps 769 mmHg 95%
    04:00 +13°C° 0.1 mm 4 mps 770 mmHg 95%
    05:00 +14°C° 0.1 mm 4 mps 770 mmHg 96%
    06:00 +13°C° 0.1 mm 4 mps 770 mmHg 94%
    07:00 +13°C° 0.1 mm 4 mps 771 mmHg 93%
    08:00 +12°C° 0.1 mm 4 mps 772 mmHg 91%
    09:00 +13°C° 0 mm 4 mps 772 mmHg 87%
    10:00 +13°C° 0 mm 4 mps 772 mmHg 82%
    11:00 +14°C° 0 mm 4 mps 773 mmHg 77%
    12:00 +14°C° 0 mm 4 mps 773 mmHg 76%
    13:00 +14°C° 0 mm 4 mps 773 mmHg 74%
    14:00 +14°C° 0 mm 4 mps 773 mmHg 73%
    15:00 +13°C° 0 mm 3 mps 773 mmHg 76%
    16:00 +12°C° 0 mm 3 mps 774 mmHg 79%
    17:00 +11°C° 0 mm 3 mps 774 mmHg 82%
    18:00 +10°C° 0 mm 2 mps 774 mmHg 85%
    19:00 +9°C° 0 mm 2 mps 775 mmHg 87%
    20:00 +8°C° 0 mm 2 mps 775 mmHg 90%
    21:00 +7°C° 0 mm 2 mps 775 mmHg 91%
    22:00 +6°C° 0 mm 2 mps 775 mmHg 91%
    23:00 +7°C° 0 mm 1 mps 775 mmHg 92%
    Show more